| time (UTC) | temp F | wind direction | speed MPH | gust MPH | rain 1hr in | rain 24hr in | rain mn in | humidity % | barometer mb |
| 20260505080009 | 46 | 206 | 22.0 | 33.0 | 0.00 | 0.16 | 0.00 | 82 | 1007.4 |
| 20260505074505 | 46 | 231 | 17.0 | 33.0 | 0.00 | 0.20 | 0.00 | 81 | 1007.3 |
| 20260505073004 | 46 | 245 | 22.0 | 37.0 | 0.00 | 0.20 | 0.00 | 81 | 1006.9 |
| 20260505071600 | 46 | 195 | 7.0 | 23.0 | 0.00 | 0.20 | 0.00 | 80 | 1006.7 |
| 20260505070059 | 46 | 232 | 12.0 | 31.0 | 0.00 | 0.20 | 0.00 | 79 | 1006.3 |
| 20260505064600 | 46 | 257 | 14.0 | 35.0 | 0.00 | 0.23 | 0.00 | 79 | 1006.0 |
| 20260505063113 | 46 | 207 | 10.0 | 25.0 | 0.00 | 0.23 | 0.00 | 79 | 1005.8 |
| 20260505061556 | 46 | 234 | 15.0 | 29.0 | 0.00 | 0.23 | 0.00 | 78 | 1005.6 |
| 20260505060054 | 47 | 236 | 20.0 | 34.0 | 0.00 | 0.23 | 0.00 | 78 | 1005.2 |
| 20260505054558 | 47 | 219 | 22.0 | 34.0 | 0.00 | 0.23 | 0.00 | 79 | 1005.5 |
| 20260505053056 | 48 | 226 | 14.0 | 28.0 | 0.00 | 0.23 | 0.00 | 78 | 1005.3 |
| 20260505051546 | 47 | 222 | 18.0 | 45.0 | 0.00 | 0.23 | 0.00 | 79 | 1005.2 |
| 20260505041549 | 48 | 191 | 13.0 | 29.0 | 0.00 | 0.23 | 0.00 | 79 | 1004.3 |
| 20260505040040 | 49 | 217 | 15.0 | 35.0 | 0.00 | 0.23 | 0.00 | 79 | 1004.3 |
| 20260505034532 | 49 | 220 | 17.0 | 35.0 | 0.00 | 0.24 | 0.00 | 78 | 1004.0 |
| 20260505033028 | 49 | 225 | 18.0 | 36.0 | 0.00 | 0.24 | 0.00 | 76 | 1003.8 |
| 20260505031537 | 49 | 209 | 14.0 | 30.0 | 0.00 | 0.24 | 0.00 | 75 | 1003.7 |
| 20260505030023 | 50 | 180 | 15.0 | 38.0 | 0.00 | 0.24 | 0.00 | 74 | 1003.7 |
| 20260505024521 | 50 | 257 | 14.0 | 32.0 | 0.00 | 0.32 | 0.24 | 71 | 1003.5 |
| 20260505023020 | 51 | 228 | 17.0 | 27.0 | 0.00 | 0.32 | 0.24 | 69 | 1003.3 |
| 20260505021520 | 51 | 249 | 17.0 | 29.0 | 0.00 | 0.32 | 0.24 | 67 | 1003.4 |
| 20260505020018 | 51 | 238 | 17.0 | 24.0 | 0.00 | 0.32 | 0.24 | 66 | 1003.0 |
| 20260505014517 | 51 | 203 | 8.0 | 22.0 | 0.00 | 0.51 | 0.24 | 64 | 1002.8 |
| 20260505013015 | 51 | 220 | 8.0 | 25.0 | 0.00 | 0.51 | 0.24 | 62 | 1002.7 |
| 20260505011513 | 51 | 178 | 10.0 | 23.0 | 0.00 | 0.51 | 0.24 | 62 | 1002.5 |
| 20260505010012 | 51 | 203 | 8.0 | 19.0 | 0.00 | 0.51 | 0.24 | 62 | 1002.2 |
| 20260505004510 | 50 | 172 | 11.0 | 28.0 | 0.00 | 0.72 | 0.24 | 63 | 1001.8 |
| 20260505003009 | 49 | 153 | 8.0 | 20.0 | 0.00 | 0.72 | 0.24 | 60 | 1001.8 |
| 20260505001508 | 49 | 176 | 9.0 | 22.0 | 0.00 | 0.72 | 0.24 | 61 | 1001.5 |
| 20260505000010 | 50 | 150 | 6.0 | 15.0 | 0.00 | 0.72 | 0.24 | 60 | 1001.3 |
| 20260504234508 | 50 | 230 | 10.0 | 19.0 | 0.00 | 0.88 | 0.24 | 60 | 1001.0 |
| 20260504233003 | 49 | 245 | 11.0 | 18.0 | 0.00 | 0.88 | 0.24 | 62 | 1000.7 |
| 20260504231501 | 49 | 219 | 16.0 | 24.0 | 0.00 | 0.88 | 0.24 | 64 | 1000.7 |
| 20260504230100 | 49 | 254 | 9.0 | 21.0 | 0.00 | 0.88 | 0.24 | 63 | 1000.6 |
| 20260504224609 | 49 | 256 | 18.0 | 31.0 | 0.00 | 1.11 | 0.24 | 63 | 1000.7 |
| 20260504223131 | 50 | 267 | 17.0 | 26.0 | 0.00 | 1.11 | 0.24 | 62 | 1000.6 |
| 20260504221557 | 50 | 253 | 22.0 | 38.0 | 0.00 | 1.11 | 0.24 | 62 | 1000.3 |
| 20260504220056 | 50 | 249 | 17.0 | 33.0 | 0.00 | 1.11 | 0.24 | 64 | 1000.3 |
| 20260504214554 | 49 | 234 | 21.0 | 38.0 | 0.00 | 1.19 | 0.24 | 64 | 1000.0 |
| 20260504213101 | 49 | 266 | 18.0 | 30.0 | 0.00 | 1.19 | 0.24 | 65 | 1000.0 |
| 20260504211550 | 49 | 194 | 10.0 | 34.0 | 0.00 | 1.19 | 0.24 | 66 | 999.8 |
| 20260504210049 | 49 | 258 | 17.0 | 28.0 | 0.00 | 1.19 | 0.24 | 67 | 999.5 |
| 20260504204548 | 48 | 228 | 18.0 | 32.0 | 0.00 | 1.28 | 0.24 | 68 | 999.2 |
| 20260504203022 | 48 | 263 | 18.0 | 32.0 | 0.00 | 1.28 | 0.24 | 69 | 999.1 |
| 20260504201515 | 47 | 238 | 22.0 | 40.0 | 0.00 | 1.28 | 0.24 | 71 | 998.9 |
| 20260504200014 | 47 | 273 | 23.0 | 44.0 | 0.00 | 1.28 | 0.24 | 73 | 998.3 |
| 20260504194511 | 47 | 226 | 15.0 | 37.0 | 0.00 | 1.28 | 0.24 | 76 | 998.1 |
| 20260504193008 | 46 | 259 | 17.0 | 41.0 | 0.00 | 1.28 | 0.24 | 78 | 997.6 |
| 20260504191506 | 46 | 272 | 23.0 | 37.0 | 0.00 | 1.28 | 0.24 | 77 | 997.2 |
| 20260504190004 | 47 | 238 | 25.0 | 44.0 | 0.00 | 1.28 | 0.24 | 78 | 996.6 |
| 20260504184502 | 46 | 240 | 29.0 | 46.0 | 0.00 | 1.28 | 0.24 | 79 | 995.8 |
| 20260504183059 | 45 | 270 | 35.0 | 53.0 | 0.00 | 1.28 | 0.24 | 80 | 996.0 |
| 20260504181600 | 44 | 257 | 30.0 | 58.0 | 0.00 | 1.28 | 0.24 | 84 | 995.8 |
| 20260504180055 | 43 | 254 | 27.0 | 44.0 | 0.00 | 1.28 | 0.24 | 87 | 996.0 |
| 20260504174557 | 42 | 249 | 26.0 | 45.0 | 0.00 | 1.28 | 0.24 | 88 | 996.1 |
| 20260504173050 | 42 | 278 | 26.0 | 44.0 | 0.01 | 1.28 | 0.24 | 89 | 995.5 |
| 20260504171549 | 41 | 259 | 22.0 | 39.0 | 0.02 | 1.28 | 0.24 | 91 | 995.3 |
| 20260504081528 | 37 | 252 | 0.0 | 0.0 | 0.01 | 1.12 | 0.08 | 97 | 975.3 |